Time,TemperatureF,DewpointF,PressureIn,WindDirection,WindDirectionDegrees,WindSpeedMPH,WindSpeedGustMPH,Humidity,HourlyPrecipIn,Conditions,Clouds,dailyrainin,SoftwareType,DateUTC
2013-02-24 00:00:00,38.0,-99.9,30.32,North,-999,-999.0,-999.0,-999,-99.99,,,-99.99,,2013-02-24 00:00:00,
2013-02-24 00:42:00,38.0,-99.9,30.32,North,-999,-999.0,-999.0,-999,-99.99,,,-99.99,,2013-02-24 00:42:00,
2013-02-24 00:52:00,38.0,-99.9,30.32,North,-999,-999.0,-999.0,-999,-99.99,,,-99.99,,2013-02-24 00:52:00,
2013-02-24 01:00:00,38.0,-99.9,30.33,North,-999,-999.0,-999.0,-999,-99.99,,,-99.99,,2013-02-24 01:00:00,
2013-02-24 01:42:00,38.0,-99.9,30.33,North,-999,-999.0,-999.0,-999,-99.99,,,-99.99,,2013-02-24 01:42:00,
2013-02-24 01:52:00,38.0,-99.9,30.33,North,-999,-999.0,-999.0,-999,-99.99,,,-99.99,,2013-02-24 01:52:00,
2013-02-24 02:00:00,36.0,35.0,30.34,North,-999,-999.0,-999.0,96,-99.99,,,-99.99,,2013-02-24 02:00:00,
2013-02-24 02:41:00,36.0,35.0,30.34,North,-999,-999.0,-999.0,96,-99.99,,,-99.99,,2013-02-24 02:41:00,
2013-02-24 02:51:00,36.0,35.0,30.34,North,-999,-999.0,-999.0,96,-99.99,,,-99.99,,2013-02-24 02:51:00,
2013-02-24 03:00:00,38.0,-99.9,30.34,North,-999,-999.0,-999.0,-999,-99.99,,,-99.99,,2013-02-24 03:00:00,
2013-02-24 03:42:00,38.0,-99.9,30.34,North,-999,-999.0,-999.0,-999,-99.99,,,-99.99,,2013-02-24 03:42:00,
2013-02-24 03:52:00,38.0,-99.9,30.34,North,-999,-999.0,-999.0,-999,-99.99,,,-99.99,,2013-02-24 03:52:00,
2013-02-24 04:00:00,38.0,29.0,30.34,North,-999,-999.0,-999.0,69,-99.99,,,-99.99,,2013-02-24 04:00:00,
2013-02-24 04:41:00,38.0,29.0,30.34,North,-999,-999.0,-999.0,69,-99.99,,,-99.99,,2013-02-24 04:41:00,
2013-02-24 04:51:00,38.0,29.0,30.34,North,-999,-999.0,-999.0,69,-99.99,,,-99.99,,2013-02-24 04:51:00,
2013-02-24 05:00:00,37.0,28.0,30.34,North,-999,-999.0,-999.0,69,-99.99,,,-99.99,,2013-02-24 05:00:00,
2013-02-24 05:41:00,37.0,28.0,30.34,North,-999,-999.0,-999.0,69,-99.99,,,-99.99,,2013-02-24 05:41:00,
2013-02-24 05:52:00,37.0,28.0,30.34,North,-999,-999.0,-999.0,69,-99.99,,,-99.99,,2013-02-24 05:52:00,
2013-02-24 06:00:00,37.0,27.0,30.35,North,-999,-999.0,-999.0,68,-99.99,,,-99.99,,2013-02-24 06:00:00,
2013-02-24 06:41:00,37.0,27.0,30.35,North,-999,-999.0,-999.0,68,-99.99,,,-99.99,,2013-02-24 06:41:00,
2013-02-24 06:52:00,37.0,27.0,30.35,North,-999,-999.0,-999.0,68,-99.99,,,-99.99,,2013-02-24 06:52:00,
2013-02-24 08:00:00,39.0,27.0,30.37,North,-999,-999.0,-999.0,62,-99.99,,,-99.99,,2013-02-24 08:00:00,
2013-02-24 08:41:00,39.0,27.0,30.37,North,-999,-999.0,-999.0,62,-99.99,,,-99.99,,2013-02-24 08:41:00,
2013-02-24 08:53:00,39.0,27.0,30.37,North,-999,-999.0,-999.0,62,-99.99,,,-99.99,,2013-02-24 08:53:00,
2013-02-24 09:00:00,39.0,30.0,30.39,North,-999,-999.0,-999.0,69,-99.99,,,-99.99,,2013-02-24 09:00:00,
2013-02-24 09:41:00,39.0,30.0,30.39,North,-999,-999.0,-999.0,69,-99.99,,,-99.99,,2013-02-24 09:41:00,
2013-02-24 09:51:00,39.0,30.0,30.39,North,-999,-999.0,-999.0,69,-99.99,,,-99.99,,2013-02-24 09:51:00,
2013-02-24 10:00:00,39.0,27.0,30.39,North,-999,-999.0,-999.0,62,-99.99,,,-99.99,,2013-02-24 10:00:00,
2013-02-24 10:41:00,39.0,27.0,30.39,North,-999,-999.0,-999.0,62,-99.99,,,-99.99,,2013-02-24 10:41:00,
2013-02-24 10:51:00,39.0,27.0,30.39,North,-999,-999.0,-999.0,62,-99.99,,,-99.99,,2013-02-24 10:51:00,
2013-02-24 11:00:00,40.0,25.0,30.40,North,-999,-999.0,-999.0,56,-99.99,,,-99.99,,2013-02-24 11:00:00,
2013-02-24 11:41:00,40.0,25.0,30.40,North,-999,-999.0,-999.0,56,-99.99,,,-99.99,,2013-02-24 11:41:00,
2013-02-24 11:52:00,40.0,25.0,30.40,North,-999,-999.0,-999.0,56,-99.99,,,-99.99,,2013-02-24 11:52:00,
2013-02-24 12:00:00,39.0,-99.9,30.41,North,-999,-999.0,-999.0,-999,-99.99,,,-99.99,,2013-02-24 12:00:00,
2013-02-24 12:46:00,39.0,-99.9,30.41,North,-999,-999.0,-999.0,-999,-99.99,,,-99.99,,2013-02-24 12:46:00,
2013-02-24 13:00:00,37.0,-99.9,30.41,North,-999,-999.0,-999.0,-999,-99.99,,,-99.99,,2013-02-24 13:00:00,
2013-02-24 13:36:00,37.0,-99.9,30.41,North,-999,-999.0,-999.0,-999,-99.99,,,-99.99,,2013-02-24 13:36:00,
2013-02-24 13:46:00,37.0,-99.9,30.41,North,-999,-999.0,-999.0,-999,-99.99,,,-99.99,,2013-02-24 13:46:00,
2013-02-24 13:56:00,37.0,-99.9,30.41,North,-999,-999.0,-999.0,-999,-99.99,,,-99.99,,2013-02-24 13:56:00,
2013-02-24 14:00:00,39.0,34.0,30.41,North,-999,-999.0,-999.0,81,-99.99,,,-99.99,,2013-02-24 14:00:00,
2013-02-24 14:52:00,39.0,34.0,30.41,North,-999,-999.0,-999.0,81,-99.99,,,-99.99,,2013-02-24 14:52:00,
2013-02-24 15:00:00,41.0,-99.9,30.41,North,-999,-999.0,-999.0,-999,-99.99,,,-99.99,,2013-02-24 15:00:00,
2013-02-24 15:43:00,41.0,-99.9,30.41,North,-999,-999.0,-999.0,-999,-99.99,,,-99.99,,2013-02-24 15:43:00,
2013-02-24 15:53:00,41.0,-99.9,30.41,North,-999,-999.0,-999.0,-999,-99.99,,,-99.99,,2013-02-24 15:53:00,
2013-02-24 16:00:00,42.0,27.0,30.41,North,-999,-999.0,-999.0,57,-99.99,,,-99.99,,2013-02-24 16:00:00,
2013-02-24 16:41:00,42.0,27.0,30.41,North,-999,-999.0,-999.0,57,-99.99,,,-99.99,,2013-02-24 16:41:00,
2013-02-24 16:51:00,42.0,27.0,30.41,North,-999,-999.0,-999.0,57,-99.99,,,-99.99,,2013-02-24 16:51:00,
2013-02-24 17:00:00,41.0,-99.9,30.40,North,-999,-999.0,-999.0,-999,-99.99,,,-99.99,,2013-02-24 17:00:00,
2013-02-24 17:42:00,41.0,-99.9,30.40,North,-999,-999.0,-999.0,-999,-99.99,,,-99.99,,2013-02-24 17:42:00,
2013-02-24 17:53:00,41.0,-99.9,30.40,North,-999,-999.0,-999.0,-999,-99.99,,,-99.99,,2013-02-24 17:53:00,
2013-02-24 18:00:00,40.0,29.0,30.42,North,-999,-999.0,-999.0,63,-99.99,,,-99.99,,2013-02-24 18:00:00,
2013-02-24 18:41:00,40.0,29.0,30.42,North,-999,-999.0,-999.0,63,-99.99,,,-99.99,,2013-02-24 18:41:00,
2013-02-24 18:51:00,40.0,29.0,30.42,North,-999,-999.0,-999.0,63,-99.99,,,-99.99,,2013-02-24 18:51:00,
2013-02-24 19:00:00,41.0,-99.9,30.42,North,-999,-999.0,-999.0,-999,-99.99,,,-99.99,,2013-02-24 19:00:00,
2013-02-24 19:42:00,41.0,-99.9,30.42,North,-999,-999.0,-999.0,-999,-99.99,,,-99.99,,2013-02-24 19:42:00,
2013-02-24 19:52:00,41.0,-99.9,30.42,North,-999,-999.0,-999.0,-999,-99.99,,,-99.99,,2013-02-24 19:52:00,
2013-02-24 20:00:00,42.0,-99.9,30.40,North,-999,-999.0,-999.0,-999,-99.99,,,-99.99,,2013-02-24 20:00:00,
2013-02-24 20:42:00,42.0,-99.9,30.40,North,-999,-999.0,-999.0,-999,-99.99,,,-99.99,,2013-02-24 20:42:00,
2013-02-24 20:52:00,42.0,-99.9,30.40,North,-999,-999.0,-999.0,-999,-99.99,,,-99.99,,2013-02-24 20:52:00,
2013-02-24 21:00:00,41.0,-99.9,30.40,North,-999,-999.0,-999.0,-999,-99.99,,,-99.99,,2013-02-24 21:00:00,
2013-02-24 21:42:00,41.0,-99.9,30.40,North,-999,-999.0,-999.0,-999,-99.99,,,-99.99,,2013-02-24 21:42:00,
2013-02-24 21:52:00,41.0,-99.9,30.40,North,-999,-999.0,-999.0,-999,-99.99,,,-99.99,,2013-02-24 21:52:00,
2013-02-24 22:00:00,40.0,35.0,30.39,North,-999,-999.0,-999.0,80,-99.99,,,-99.99,,2013-02-24 22:00:00,
2013-02-24 22:41:00,40.0,35.0,30.39,North,-999,-999.0,-999.0,80,-99.99,,,-99.99,,2013-02-24 22:41:00,
2013-02-24 22:51:00,40.0,35.0,30.39,North,-999,-999.0,-999.0,80,-99.99,,,-99.99,,2013-02-24 22:51:00,
2013-02-24 23:00:00,38.0,-99.9,30.39,North,-999,-999.0,-999.0,-999,-99.99,,,-99.99,,2013-02-24 23:00:00,
2013-02-24 23:42:00,38.0,-99.9,30.39,North,-999,-999.0,-999.0,-999,-99.99,,,-99.99,,2013-02-24 23:42:00,
2013-02-24 23:52:00,38.0,-99.9,30.39,North,-999,-999.0,-999.0,-999,-99.99,,,-99.99,,2013-02-24 23:52:00,